FW7722 Weather Reports


Display with metric or nautical units.
time (UTC)temp
F
wind
direction
speed
MPH
gust
MPH
rain 1hr
in
rain 24hr
in
rain mn
in
humidity
%
barometer
mb
20260505024859 63 167 1.0 2.0 0.00 0.00 0.00 46 1009.6
20260505024356 64 167 0.0 0.0 0.00 0.00 0.00 45 1009.7
20260505023853 64 167 1.0 2.0 0.00 0.00 0.00 44 1009.8
20260505023350 64 168 0.0 0.0 0.00 0.00 0.00 45 1009.8
20260505022847 63 177 1.0 2.0 0.00 0.00 0.00 45 1010.2
20260505022344 64 177 0.0 0.0 0.00 0.00 0.00 45 1009.9
20260505021842 63 179 1.0 2.0 0.00 0.00 0.00 46 1009.9
20260505021338 63 192 0.0 0.0 0.00 0.00 0.00 46 1010.1
20260505020834 63 192 2.0 2.0 0.00 0.00 0.00 45 1010.1
20260505020330 63 194 0.0 2.0 0.00 0.00 0.00 46 1009.9
20260505015827 63 194 1.0 2.0 0.00 0.00 0.00 46 1009.9
20260505015324 62 194 2.0 3.0 0.00 0.00 0.00 48 1009.9
20260505014821 61 262 0.0 0.0 0.00 0.00 0.00 50 1010.1
20260505014318 60 266 2.0 2.0 0.00 0.00 0.00 51 1009.9
20260505013814 60 155 0.0 0.0 0.00 0.00 0.00 54 1009.8
20260505013312 60 155 0.0 0.0 0.00 0.00 0.00 53 1010.0
20260505012810 60 155 0.0 0.0 0.00 0.00 0.00 53 1009.9
20260505012308 61 155 0.0 0.0 0.00 0.00 0.00 51 1009.7
20260505011803 61 155 0.0 0.0 0.00 0.00 0.00 51 1009.9
20260505011301 62 155 0.0 0.0 0.00 0.00 0.00 49 1009.9
20260505010756 62 155 0.0 0.0 0.00 0.00 0.00 48 1009.6
20260505010252 63 155 0.0 0.0 0.00 0.00 0.00 47 1009.8
20260505005748 63 155 0.0 0.0 0.00 0.00 0.00 45 1009.6
20260505005246 64 155 0.0 0.0 0.00 0.00 0.00 45 1009.5
20260505004743 64 155 0.0 0.0 0.00 0.00 0.00 44 1009.4
20260505004239 65 155 0.0 0.0 0.00 0.00 0.00 43 1009.3
20260505003737 66 155 0.0 0.0 0.00 0.00 0.00 42 1009.4
20260505003235 66 155 0.0 0.0 0.00 0.00 0.00 41 1009.3
20260505002730 66 155 1.0 2.0 0.00 0.00 0.00 40 1009.5
20260505002228 67 156 1.0 2.0 0.00 0.00 0.00 40 1009.3
20260505001725 67 156 1.0 2.0 0.00 0.00 0.00 40 1009.5
20260505001223 68 158 1.0 2.0 0.00 0.00 0.00 38 1009.2
20260505000719 68 226 2.0 2.0 0.00 0.00 0.00 38 1009.2
20260505000218 68 261 0.0 0.0 0.00 0.00 0.00 37 1009.2
20260504235713 68 261 2.0 2.0 0.00 0.00 0.00 37 1009.3
20260504235210 69 219 0.0 0.0 0.00 0.00 0.00 37 1009.0
20260504234707 69 225 0.0 0.0 0.00 0.00 0.00 37 1009.4
20260504234204 69 175 4.0 5.0 0.00 0.00 0.00 36 1009.1
20260504233700 70 148 3.0 3.0 0.00 0.00 0.00 36 1009.3
20260504233156 70 194 2.0 2.0 0.00 0.00 0.00 35 1009.2
20260504232654 70 155 5.0 7.0 0.00 0.00 0.00 35 1009.1
20260504232151 71 264 3.0 3.0 0.00 0.00 0.00 34 1009.1
20260504231648 71 223 7.0 7.0 0.00 0.00 0.00 33 1009.3
20260504231144 71 173 6.0 7.0 0.00 0.00 0.00 34 1009.2
20260504230640 71 192 4.0 5.0 0.00 0.00 0.00 33 1009.3
20260504230139 71 145 2.0 3.0 0.00 0.00 0.00 33 1009.2
20260504225637 71 147 4.0 5.0 0.00 0.00 0.00 33 1009.0
20260504225132 71 197 3.0 3.0 0.00 0.00 0.00 34 1009.1
20260504224629 71 234 3.0 3.0 0.00 0.00 0.00 33 1009.3
20260504224126 72 211 3.0 3.0 0.00 0.00 0.00 34 1009.2
20260504223624 72 177 1.0 2.0 0.00 0.00 0.00 34 1009.4
20260504223119 72 177 2.0 3.0 0.00 0.00 0.00 34 1009.1
20260504222616 72 186 3.0 5.0 0.00 0.00 0.00 33 1009.3
20260504222113 72 137 5.0 7.0 0.00 0.00 0.00 33 1009.3
20260504221610 73 163 5.0 7.0 0.00 0.00 0.00 33 1009.3
20260504221108 72 337 4.0 5.0 0.00 0.00 0.00 33 1009.3
20260504220604 73 121 3.0 3.0 0.00 0.00 0.00 31 1009.3
20260504215558 73 100 3.0 3.0 0.00 0.00 0.00 32 1009.2
20260504215055 73 279 3.0 3.0 0.00 0.00 0.00 32 1009.2
20260504214550 73 123 2.0 3.0 0.00 0.00 0.00 33 1009.4
20260504214047 73 216 2.0 2.0 0.00 0.00 0.00 34 1009.3
20260504213543 73 160 4.0 5.0 0.00 0.00 0.00 34 1009.1
20260504213041 73 247 3.0 3.0 0.00 0.00 0.00 33 1009.4
20260504212536 73 229 8.0 10.0 0.00 0.00 0.00 32 1009.4
20260504212034 73 148 4.0 5.0 0.00 0.00 0.00 33 1009.3
20260504211531 73 166 4.0 5.0 0.00 0.00 0.00 33 1009.2
20260504211028 73 144 4.0 7.0 0.00 0.00 0.00 32 1009.3
20260504210525 73 255 6.0 7.0 0.00 0.00 0.00 31 1009.4
20260504210022 73 245 7.0 10.0 0.00 0.00 0.00 32 1009.4
20260504205520 74 179 6.0 7.0 0.00 0.00 0.00 31 1009.3
20260504205017 74 170 7.0 10.0 0.00 0.00 0.00 31 1009.3
20260504204515 74 139 11.0 15.0 0.00 0.00 0.00 31 1009.4
20260504204014 73 191 5.0 7.0 0.00 0.00 0.00 34 1009.3
20260504203512 73 244 8.0 12.0 0.00 0.00 0.00 33 1009.5
20260504203009 74 148 4.0 7.0 0.00 0.00 0.00 32 1009.4
20260504202504 73 169 6.0 9.0 0.00 0.00 0.00 33 1009.5
20260504202001 74 180 6.0 7.0 0.00 0.00 0.00 33 1009.6
20260504201458 74 234 6.0 9.0 0.00 0.00 0.00 32 1009.7
20260504200955 74 146 6.0 9.0 0.00 0.00 0.00 32 1009.5
20260504200452 74 158 4.0 5.0 0.00 0.00 0.00 32 1009.6
20260504195949 74 211 5.0 7.0 0.00 0.00 0.00 33 1009.7
20260504195444 74 193 6.0 7.0 0.00 0.00 0.00 34 1009.5
20260504194941 73 190 4.0 5.0 0.00 0.00 0.00 35 1009.8
20260504194438 73 111 4.0 5.0 0.00 0.00 0.00 33 1009.9
20260504193933 74 269 6.0 7.0 0.00 0.00 0.00 32 1009.9
20260504193431 73 193 8.0 14.0 0.00 0.00 0.00 31 1010.1
20260504192930 73 193 5.0 7.0 0.00 0.00 0.00 34 1009.9
20260504192426 74 1 9.0 12.0 0.00 0.00 0.00 30 1009.9
20260504191925 73 232 8.0 12.0 0.00 0.00 0.00 30 1010.1
20260504191423 73 234 4.0 3.0 0.00 0.00 0.00 32 1010.0
20260504190918 73 171 7.0 10.0 0.00 0.00 0.00 32 1010.4
20260504190414 73 140 7.0 7.0 0.00 0.00 0.00 33 1010.2
20260504185911 73 242 2.0 2.0 0.00 0.00 0.00 30 1010.2
20260504185408 73 191 3.0 3.0 0.00 0.00 0.00 32 1010.5
20260504184904 73 200 9.0 10.0 0.00 0.00 0.00 31 1010.5
20260504184400 74 182 5.0 7.0 0.00 0.00 0.00 30 1010.5
20260504183856 73 200 2.0 2.0 0.00 0.00 0.00 35 1010.4
20260504183354 73 297 6.0 9.0 0.00 0.00 0.00 30 1010.5
20260504182851 73 232 8.0 12.0 0.00 0.00 0.00 30 1010.6
20260504182348 72 164 8.0 10.0 0.00 0.00 0.00 32 1010.9
20260504181845 72 188 6.0 7.0 0.00 0.00 0.00 32 1011.0
20260504181342 73 264 10.0 15.0 0.00 0.00 0.00 31 1011.0
20260504180841 73 98 3.0 3.0 0.00 0.00 0.00 34 1010.8
20260504180339 73 166 4.0 5.0 0.00 0.00 0.00 35 1011.2
20260504175837 71 331 3.0 3.0 0.00 0.00 0.00 32 1011.1
20260504175333 71 126 6.0 9.0 0.00 0.00 0.00 35 1011.5
20260504174832 71 189 6.0 9.0 0.00 0.00 0.00 32 1011.2
20260504174329 71 142 8.0 9.0 0.00 0.00 0.00 30 1011.2
20260504173826 71 171 6.0 7.0 0.00 0.00 0.00 33 1011.5
20260504173322 71 183 4.0 5.0 0.00 0.00 0.00 33 1011.7
20260504172819 70 121 7.0 9.0 0.00 0.00 0.00 30 1011.8
20260504172316 71 252 9.0 10.0 0.00 0.00 0.00 30 1011.8
20260504171811 71 162 3.0 5.0 0.00 0.00 0.00 32 1011.8
20260504171309 71 234 7.0 9.0 0.00 0.00 0.00 31 1011.8
20260504170806 70 214 5.0 9.0 0.00 0.00 0.00 33 1011.9
20260504170303 70 286 9.0 12.0 0.00 0.00 0.00 31 1012.2
20260504160221 70 289 7.0 10.0 0.00 0.00 0.00 30 1012.9
20260504151150 66 123 6.0 10.0 0.00 0.00 0.00 35 1013.2
20260504150647 67 179 5.0 5.0 0.00 0.00 0.00 34 1013.4
20260504150144 66 302 6.0 7.0 0.00 0.00 0.00 38 1013.2
20260504141113 62 244 4.0 3.0 0.00 0.00 0.00 48 1013.5
20260504140609 61 124 4.0 5.0 0.00 0.00 0.00 49 1013.6
20260504140105 61 269 4.0 5.0 0.00 0.00 0.00 51 1013.8
20260504130533 58 155 6.0 7.0 0.00 0.00 0.00 57 1014.1
20260504110421 46 65 1.0 0.0 0.00 0.00 0.00 63 1014.5
20260504100338 39 36 0.0 0.0 0.00 0.00 0.00 80 1014.4
20260504081731 38 36 0.0 0.0 0.00 0.00 0.00 84 1014.4
20260504081227 38 36 0.0 0.0 0.00 0.00 0.00 84 1014.5
20260504080724 38 36 0.0 0.0 0.00 0.00 0.00 86 1014.2
20260504080221 38 36 0.0 0.0 0.00 0.00 0.00 85 1014.2
20260504070148 39 37 0.0 0.0 0.00 0.00 0.00 82 1014.4
20260504060109 41 36 0.0 0.0 0.00 0.00 0.00 77 1014.3
20260504050537 44 39 0.0 0.0 0.00 0.00 0.00 67 1014.3
20260504045531 46 39 0.0 0.0 0.00 0.00 0.00 61 1014.4
20260504045026 47 39 0.0 0.0 0.00 0.00 0.00 58 1014.3
20260504044524 48 40 0.0 0.0 0.00 0.00 0.00 56 1014.3
20260504044020 48 40 0.0 0.0 0.00 0.00 0.00 54 1014.4
20260504043517 48 40 0.0 0.0 0.00 0.00 0.00 53 1014.0
20260504043015 48 40 0.0 0.0 0.00 0.00 0.00 52 1014.2
20260504042512 48 40 0.0 0.0 0.00 0.00 0.00 53 1014.2
20260504042009 48 40 1.0 2.0 0.00 0.00 0.00 52 1014.0
20260504041504 49 38 0.0 0.0 0.00 0.00 0.00 53 1014.1
20260504041000 48 338 0.0 0.0 0.00 0.00 0.00 52 1014.0
20260504040458 48 336 0.0 0.0 0.00 0.00 0.00 53 1014.0
20260504035954 47 303 2.0 2.0 0.00 0.00 0.00 53 1013.8
20260504035452 46 284 1.0 0.0 0.00 0.00 0.00 58 1013.7
20260504034948 46 284 0.0 0.0 0.00 0.00 0.00 61 1013.8
20260504034446 47 284 0.0 0.0 0.00 0.00 0.00 60 1013.8
20260504033942 48 284 0.0 0.0 0.00 0.00 0.00 58 1013.8
20260504033440 48 284 0.0 0.0 0.00 0.00 0.00 52 1013.7
20260504032938 48 284 0.0 0.0 0.00 0.00 0.00 54 1013.7
20260504032434 47 284 0.0 0.0 0.00 0.00 0.00 54 1013.8
20260504031931 48 284 0.0 0.0 0.00 0.00 0.00 56 1013.5
20260504031428 48 285 0.0 0.0 0.00 0.00 0.00 55 1013.7
20260504030925 48 285 0.0 0.0 0.00 0.00 0.00 53 1013.8
20260504030422 48 285 0.0 0.0 0.00 0.00 0.00 57 1013.7
20260504025918 48 285 1.0 2.0 0.00 0.00 0.00 53 1013.7
20260504025415 48 285 1.0 2.0 0.00 0.00 0.00 57 1013.6